GW6329 Weather Reports


Display with metric or nautical units.
time (UTC)temp
F
wind
direction
speed
MPH
gust
MPH
rain 1hr
in
rain 24hr
in
rain mn
in
humidity
%
barometer
mb
20260507051404 76 359 1.0 3.0 0.00 0.00 0.00 57 1003.4
20260507050904 77 213 2.0 5.0 0.00 0.00 0.00 56 1003.5
20260507050404 77 158 1.0 3.0 0.00 0.00 0.00 59 1003.6
20260507045904 77 168 0.0 2.0 0.00 0.00 0.00 59 1003.6
20260507045405 77 169 0.0 2.0 0.00 0.00 0.00 58 1003.6
20260507044904 77 184 1.0 2.0 0.00 0.00 0.00 57 1003.6
20260507044404 77 125 1.0 3.0 0.00 0.00 0.00 56 1003.4
20260507043904 78 129 1.0 2.0 0.00 0.00 0.00 57 1003.5
20260507043404 78 129 1.0 3.0 0.00 0.00 0.00 58 1003.4
20260507042904 78 147 1.0 3.0 0.00 0.00 0.00 59 1003.3
20260507042404 78 152 1.0 3.0 0.00 0.00 0.00 58 1003.4
20260507041904 78 160 1.0 1.0 0.00 0.00 0.00 62 1003.4
20260507041404 77 162 1.0 2.0 0.00 0.00 0.00 62 1003.4
20260507040904 77 163 1.0 2.0 0.00 0.00 0.00 62 1003.5
20260507040404 77 163 1.0 2.0 0.00 0.00 0.00 63 1003.4
20260507035904 77 164 0.0 1.0 0.00 0.00 0.00 63 1003.4
20260507035404 77 163 2.0 3.0 0.00 0.00 0.00 61 1003.6
20260507034903 77 165 0.0 1.0 0.00 0.00 0.00 64 1003.6
20260507034404 77 164 1.0 2.0 0.00 0.00 0.00 64 1003.6
20260507033904 78 166 0.0 3.0 0.00 0.00 0.00 63 1003.7
20260507033405 78 170 1.0 2.0 0.00 0.00 0.00 66 1003.7
20260507032905 77 173 1.0 2.0 0.00 0.00 0.00 67 1003.8
20260507032405 77 174 1.0 2.0 0.00 0.00 0.00 67 1003.8
20260507031905 77 175 1.0 1.0 0.00 0.00 0.00 69 1003.9
20260507031406 77 176 0.0 2.0 0.00 0.00 0.00 69 1004.1
20260507030906 76 176 1.0 2.0 0.00 0.00 0.00 71 1004.1
20260507030406 76 168 0.0 1.0 0.00 0.00 0.00 70 1003.9
20260507025906 76 167 1.0 2.0 0.00 0.00 0.00 70 1004.1
20260507025405 76 197 1.0 1.0 0.00 0.00 0.00 72 1004.1
20260507024905 76 199 0.0 1.0 0.00 0.00 0.00 73 1004.2
20260507024405 76 199 0.0 1.0 0.00 0.00 0.00 74 1004.2
20260507023905 76 359 0.0 2.0 0.00 0.00 0.00 75 1003.9
20260507023405 76 199 1.0 3.0 0.00 0.00 0.00 76 1004.2
20260507022905 76 199 1.0 3.0 0.00 0.00 0.00 75 1004.5
20260507022405 76 203 0.0 1.0 0.00 0.00 0.00 75 1004.6
20260507021905 75 203 1.0 3.0 0.00 0.00 0.00 76 1004.7
20260507021406 75 204 1.0 3.0 0.00 0.00 0.00 78 1004.7
20260507020905 75 204 0.0 2.0 0.00 0.00 0.00 77 1004.9
20260507020405 75 205 2.0 3.0 0.00 0.00 0.00 78 1004.9
20260507015905 74 183 1.0 3.0 0.00 0.00 0.00 79 1005.0
20260507015405 74 359 1.0 3.0 0.00 0.00 0.00 80 1004.9
20260507014905 74 223 0.0 1.0 0.00 0.00 0.00 80 1005.1
20260507014405 74 226 0.0 2.0 0.00 0.00 0.00 79 1005.4
20260507013905 74 208 2.0 7.0 0.00 0.00 0.00 79 1005.4
20260507013405 74 189 1.0 3.0 0.00 0.00 0.00 79 1005.6
20260507012905 74 189 1.0 3.0 0.00 0.00 0.00 79 1005.6
20260507012405 74 202 0.0 2.0 0.00 0.00 0.00 81 1005.7
20260507011905 73 359 0.0 2.0 0.00 0.00 0.00 83 1005.7
20260507011405 73 359 1.0 2.0 0.00 0.00 0.00 82 1005.8
20260507010404 73 359 1.0 3.0 0.00 0.00 0.00 83 1006.0
20260507005905 73 359 1.0 3.0 0.00 0.00 0.00 83 1005.9
20260507005405 73 359 0.0 1.0 0.00 0.00 0.00 83 1005.9
20260507004905 73 359 0.0 1.0 0.00 0.00 0.00 83 1005.9
20260507004404 73 359 1.0 3.0 0.00 0.00 0.00 84 1006.1
20260507003905 73 359 1.0 3.0 0.00 0.00 0.00 83 1006.2
20260507003405 73 359 0.0 1.0 0.00 0.00 0.00 83 1006.3
20260507002905 73 359 2.0 3.0 0.00 0.00 0.00 83 1006.1
20260507002404 73 359 1.0 3.0 0.00 0.00 0.00 82 1006.2
20260507001905 73 359 1.0 2.0 0.00 0.00 0.00 83 1006.2
20260507001405 73 359 1.0 2.0 0.00 0.00 0.00 83 1006.2
20260507000905 73 359 0.0 2.0 0.00 0.00 0.00 83 1006.3
20260507000405 73 207 0.0 2.0 0.00 0.00 0.00 83 1006.4
20260506235905 73 359 1.0 2.0 0.00 0.00 0.00 82 1006.5
20260506235405 74 342 1.0 1.0 0.00 0.00 0.00 82 1006.6
20260506234904 74 201 1.0 2.0 0.00 0.00 0.00 81 1006.6
20260506234405 74 201 0.0 1.0 0.00 0.00 0.00 81 1006.8
20260506233905 74 201 0.0 3.0 0.00 0.00 0.00 81 1006.9
20260506233405 74 201 1.0 3.0 0.00 0.00 0.00 80 1007.0
20260506232904 75 202 1.0 2.0 0.00 0.00 0.00 81 1006.9
20260506232404 75 202 0.0 3.0 0.00 0.00 0.00 81 1007.0
20260506231905 75 193 0.0 2.0 0.00 0.00 0.00 82 1007.0
20260506231405 74 193 0.0 1.0 0.00 0.00 0.00 83 1006.8
20260506230904 73 194 1.0 3.0 0.00 0.00 0.00 84 1007.0
20260506230405 72 209 1.0 2.0 0.00 0.00 0.00 86 1007.1
20260506225904 72 214 1.0 3.0 0.00 0.00 0.00 87 1007.0
20260506225405 71 202 1.0 3.0 0.00 0.00 0.00 89 1006.8
20260506224905 71 202 2.0 6.0 0.00 0.00 0.00 90 1006.7
20260506224405 70 212 2.0 3.0 0.00 0.00 0.00 91 1006.7
20260506223905 70 203 2.0 3.0 0.00 0.00 0.00 92 1006.6
20260506223405 70 359 2.0 3.0 0.00 0.00 0.00 92 1006.4
20260506222905 69 359 2.0 3.0 0.00 0.00 0.00 94 1006.5
20260506222404 69 359 1.0 3.0 0.00 0.00 0.00 94 1006.5
20260506221905 69 202 1.0 3.0 0.00 0.00 0.00 95 1006.4
20260506221405 69 203 2.0 3.0 0.00 0.00 0.00 95 1006.5
20260506220904 68 359 1.0 3.0 0.00 0.00 0.00 96 1006.6
20260506220404 68 359 1.0 3.0 0.00 0.00 0.00 96 1006.4
20260506215904 68 359 2.0 3.0 0.00 0.00 0.00 97 1006.3
20260506215404 68 359 2.0 3.0 0.00 0.00 0.00 97 1006.1
20260506214904 67 359 1.0 2.0 0.00 0.00 0.00 98 1006.2
20260506214404 67 359 1.0 3.0 0.00 0.00 0.00 98 1006.2
20260506213904 67 359 1.0 3.0 0.00 0.00 0.00 98 1006.0
20260506213405 67 359 1.0 2.0 0.00 0.00 0.00 98 1006.1
20260506212904 66 359 1.0 2.0 0.00 0.00 0.00 98 1005.9
20260506212404 65 359 0.0 1.0 0.00 0.00 0.00 98 1006.2
20260506211904 64 359 0.0 0.0 0.00 0.00 0.00 98 1005.8
20260506211404 64 359 0.0 0.0 0.00 0.00 0.00 97 1005.9
20260506210904 64 359 0.0 0.0 0.00 0.00 0.00 98 1005.8
20260506210404 63 359 0.0 0.0 0.00 0.00 0.00 97 1005.8
20260506205904 63 359 0.0 0.0 0.00 0.00 0.00 97 1005.6
20260506205404 62 11 0.0 0.0 0.00 0.00 0.00 97 1005.7
20260506204904 63 359 0.0 0.0 0.00 0.00 0.00 96 1005.9
20260506204404 63 359 0.0 0.0 0.00 0.01 0.00 95 1005.8
20260506203905 63 359 0.0 0.0 0.00 0.01 0.00 96 1005.8
20260506203404 64 359 0.0 0.0 0.00 0.01 0.00 96 1005.7
20260506202904 64 359 0.0 0.0 0.00 0.01 0.00 97 1005.8
20260506202404 64 359 1.0 1.0 0.00 0.01 0.00 97 1005.7
20260506201904 64 0 1.0 1.0 0.00 0.01 0.00 97 1005.7
20260506201404 64 359 1.0 2.0 0.00 0.01 0.00 97 1005.7
20260506200904 64 1 0.0 1.0 0.00 0.01 0.00 98 1005.7
20260506200404 64 0 1.0 2.0 0.00 0.01 0.00 98 1005.6
20260506195904 63 359 1.0 2.0 0.00 0.01 0.00 97 1005.6
20260506195404 62 0 1.0 2.0 0.00 0.01 0.00 97 1005.7
20260506194905 62 359 1.0 2.0 0.00 0.01 0.00 96 1005.7
20260506194404 62 0 1.0 1.0 0.00 0.01 0.00 95 1005.5
20260506193904 62 0 0.0 0.0 0.00 0.01 0.00 96 1005.3
20260506193404 62 359 0.0 0.0 0.00 0.01 0.00 96 1005.2
20260506192904 62 0 0.0 0.0 0.00 0.01 0.00 95 1005.1
20260506192404 63 359 0.0 0.0 0.00 0.01 0.00 95 1005.0
20260506191904 63 0 0.0 0.0 0.00 0.01 0.00 96 1005.0
20260506191404 63 0 0.0 0.0 0.00 0.01 0.00 96 1005.0
20260506190904 63 359 0.0 0.0 0.00 0.01 0.00 95 1004.9
20260506190404 64 359 0.0 0.0 0.00 0.01 0.00 95 1004.9
20260506185904 64 0 0.0 0.0 0.00 0.01 0.00 96 1004.9
20260506185404 64 359 0.0 0.0 0.00 0.01 0.00 95 1004.9
20260506184904 64 359 0.0 0.0 0.00 0.01 0.00 95 1004.8
20260506184404 65 359 0.0 0.0 0.00 0.01 0.00 96 1004.8
20260506183905 65 359 0.0 1.0 0.00 0.01 0.00 96 1004.9
20260506183404 65 359 0.0 1.0 0.00 0.01 0.00 96 1005.0
20260506182906 65 359 1.0 1.0 0.00 0.01 0.00 96 1005.0
20260506182405 65 359 1.0 2.0 0.00 0.01 0.00 97 1005.0
20260506181905 65 359 1.0 2.0 0.00 0.01 0.00 97 1005.1
20260506181406 65 359 1.0 2.0 0.00 0.01 0.00 97 1005.1
20260506180905 65 359 1.0 2.0 0.00 0.01 0.00 97 1005.1
20260506180405 65 359 1.0 2.0 0.00 0.01 0.00 97 1005.1
20260506175906 65 359 1.0 2.0 0.00 0.01 0.00 97 1005.1
20260506175405 65 359 1.0 2.0 0.00 0.01 0.00 97 1005.1
20260506174905 65 0 1.0 2.0 0.00 0.01 0.00 97 1005.1
20260506174406 65 359 1.0 2.0 0.00 0.01 0.00 96 1005.1
20260506173906 65 359 1.0 2.0 0.00 0.01 0.00 97 1005.2
20260506173405 64 359 0.0 1.0 0.00 0.01 0.00 96 1005.2
20260506172905 64 359 1.0 1.0 0.00 0.01 0.00 96 1005.2
20260506172405 64 359 1.0 1.0 0.00 0.01 0.00 96 1005.2
20260506171905 64 359 0.0 0.0 0.00 0.01 0.00 96 1005.2
20260506171405 64 359 0.0 0.0 0.00 0.01 0.00 96 1005.2
20260506170905 65 359 0.0 0.0 0.00 0.01 0.00 96 1005.1
20260506170406 65 359 0.0 1.0 0.00 0.01 0.00 96 1005.3
20260506165905 65 359 0.0 1.0 0.00 0.01 0.00 96 1005.3
20260506165405 65 359 0.0 1.0 0.00 0.01 0.00 96 1005.5
20260506164405 65 359 0.0 0.0 0.00 0.01 0.00 96 1005.3
20260506163905 65 359 0.0 0.0 0.00 0.01 0.00 95 1005.3
20260506163405 65 359 0.0 1.0 0.00 0.01 0.00 95 1005.4
20260506162905 65 359 0.0 0.0 0.00 0.01 0.00 95 1005.5
20260506162405 65 359 0.0 0.0 0.00 0.01 0.00 95 1005.5
20260506161905 65 359 0.0 0.0 0.00 0.01 0.00 95 1005.5
20260506161406 65 359 0.0 0.0 0.00 0.01 0.00 95 1005.5
20260506160905 65 359 0.0 0.0 0.00 0.01 0.00 95 1005.6
20260506160405 65 359 0.0 0.0 0.00 0.01 0.00 95 1005.6
20260506155905 66 359 0.0 0.0 0.00 0.01 0.00 96 1005.5
20260506155405 66 359 0.0 0.0 0.00 0.01 0.00 96 1005.6
20260506154905 66 359 0.0 0.0 0.00 0.01 0.00 96 1005.6
20260506154405 66 359 0.0 0.0 0.00 0.01 0.00 96 1005.6
20260506153905 66 359 0.0 0.0 0.00 0.01 0.00 96 1005.6
20260506153405 65 359 0.0 0.0 0.00 0.01 0.00 96 1005.7
20260506152904 65 359 0.0 0.0 0.00 0.01 0.00 95 1005.8
20260506152405 66 359 0.0 1.0 0.00 0.01 0.00 95 1005.9
20260506151905 66 359 1.0 1.0 0.00 0.01 0.00 95 1005.9
20260506151405 66 359 0.0 0.0 0.00 0.01 0.00 95 1006.0
20260506150905 66 359 0.0 0.0 0.00 0.01 0.00 95 1006.1
20260506150405 66 359 0.0 0.0 0.00 0.01 0.00 95 1006.2
20260506145905 66 359 0.0 0.0 0.00 0.01 0.00 95 1006.2
20260506145405 66 359 0.0 0.0 0.00 0.01 0.00 95 1006.2
20260506144905 66 359 0.0 0.0 0.00 0.01 0.00 95 1006.3
20260506144404 66 359 0.0 0.0 0.00 0.01 0.00 95 1006.4
20260506143905 66 359 0.0 0.0 0.00 0.01 0.00 95 1006.4
20260506143405 66 359 0.0 0.0 0.00 0.01 0.00 95 1006.4
20260506142904 66 359 0.0 0.0 0.00 0.01 0.00 95 1006.3
20260506142405 67 359 0.0 0.0 0.00 0.01 0.00 95 1006.3
20260506141904 67 359 0.0 0.0 0.00 0.01 0.00 95 1006.3
20260506141405 67 359 0.0 1.0 0.00 0.01 0.00 95 1006.4
20260506140904 67 359 0.0 0.0 0.00 0.01 0.00 95 1006.3
20260506140404 67 359 0.0 0.0 0.00 0.01 0.00 95 1006.3
20260506135905 67 359 0.0 0.0 0.00 0.01 0.01 95 1006.3
20260506135405 67 359 0.0 0.0 0.00 0.01 0.01 95 1006.3
20260506134904 67 359 0.0 0.0 0.00 0.01 0.01 94 1006.3
20260506134404 67 359 0.0 0.0 0.00 0.01 0.01 94 1006.3
20260506133905 67 359 0.0 0.0 0.00 0.01 0.01 94 1006.3
20260506133404 68 359 0.0 0.0 0.00 0.01 0.01 94 1006.3
20260506132904 68 359 0.0 0.0 0.00 0.01 0.01 94 1006.3
20260506132405 68 359 0.0 0.0 0.00 0.01 0.01 95 1006.4
20260506131904 68 359 0.0 0.0 0.00 0.01 0.01 95 1006.4
20260506131405 68 359 0.0 0.0 0.00 0.01 0.01 95 1006.4
20260506130905 68 359 0.0 0.0 0.00 0.01 0.01 95 1006.5
20260506130405 68 359 0.0 0.0 0.00 0.01 0.01 95 1006.6
20260506125904 68 359 0.0 0.0 0.00 0.01 0.01 95 1006.7
20260506125405 68 359 0.0 0.0 0.00 0.01 0.01 95 1006.7
20260506124905 68 359 0.0 0.0 0.00 0.01 0.01 95 1006.7
20260506124404 68 359 0.0 0.0 0.00 0.01 0.01 95 1006.7
20260506123904 68 359 0.0 0.0 0.00 0.01 0.01 95 1006.7
20260506123404 68 359 0.0 0.0 0.00 0.01 0.01 95 1006.7
20260506122904 68 359 0.0 0.0 0.00 0.01 0.01 95 1006.6
20260506122404 68 359 0.0 0.0 0.00 0.01 0.01 95 1006.7
20260506121904 68 359 0.0 0.0 0.00 0.01 0.01 95 1006.8
20260506121404 68 359 0.0 0.0 0.00 0.01 0.01 95 1006.8
20260506120905 68 359 0.0 0.0 0.00 0.01 0.01 95 1006.8
20260506120404 68 359 0.0 0.0 0.00 0.01 0.01 95 1006.7
20260506115904 68 359 0.0 0.0 0.00 0.01 0.01 94 1006.7
20260506115404 68 359 0.0 0.0 0.00 0.01 0.01 94 1006.7
20260506114905 68 359 0.0 0.0 0.00 0.01 0.01 94 1006.6
20260506114404 68 359 0.0 0.0 0.00 0.01 0.01 94 1006.7
20260506113904 68 359 0.0 0.0 0.00 0.01 0.01 94 1006.9
20260506113405 68 359 0.0 0.0 0.00 0.01 0.01 94 1006.9
20260506112904 68 359 0.0 0.0 0.00 0.01 0.01 94 1007.0
20260506112404 68 359 0.0 0.0 0.00 0.01 0.01 94 1007.0
20260506111905 68 359 0.0 0.0 0.00 0.01 0.01 94 1007.0
20260506111404 68 359 0.0 0.0 0.00 0.01 0.01 94 1007.0
20260506110904 68 359 0.0 0.0 0.00 0.01 0.01 94 1007.0
20260506110404 68 359 0.0 0.0 0.00 0.01 0.01 94 1007.0
20260506105904 68 359 0.0 0.0 0.00 0.01 0.01 94 1007.0
20260506105404 68 359 0.0 0.0 0.00 0.01 0.01 94 1007.1
20260506104904 68 359 0.0 0.0 0.00 0.01 0.01 94 1007.2
20260506104404 68 359 0.0 0.0 0.00 0.01 0.01 94 1007.3
20260506103904 68 359 0.0 0.0 0.00 0.01 0.01 93 1007.2
20260506103404 68 359 0.0 0.0 0.00 0.01 0.01 93 1007.3
20260506102904 68 359 0.0 0.0 0.00 0.01 0.01 93 1007.2
20260506102404 69 359 0.0 0.0 0.00 0.01 0.01 93 1007.1
20260506101904 69 359 0.0 0.0 0.00 0.01 0.01 93 1007.2
20260506101404 69 359 0.0 0.0 0.00 0.01 0.01 93 1007.2
20260506100904 69 359 0.0 0.0 0.00 0.01 0.01 93 1007.3
20260506100404 69 359 0.0 0.0 0.00 0.01 0.01 93 1007.2
20260506095904 69 359 0.0 0.0 0.00 0.01 0.01 93 1007.2
20260506095403 69 359 0.0 0.0 0.00 0.01 0.01 92 1007.1
20260506094904 69 359 0.0 0.0 0.00 0.01 0.01 92 1007.1
20260506094404 69 359 0.0 0.0 0.00 0.01 0.01 92 1007.0
20260506093904 69 359 0.0 0.0 0.00 0.01 0.01 92 1007.1
20260506093404 69 359 0.0 0.0 0.00 0.01 0.01 92 1007.1
20260506092904 70 359 0.0 0.0 0.00 0.01 0.01 91 1007.0
20260506092405 70 359 0.0 1.0 0.00 0.01 0.01 91 1006.9
20260506091906 70 359 1.0 2.0 0.00 0.01 0.01 91 1006.9
20260506091405 70 359 1.0 2.0 0.00 0.01 0.01 91 1006.9
20260506090906 70 359 1.0 2.0 0.00 0.01 0.01 91 1006.9
20260506090405 70 359 1.0 2.0 0.00 0.01 0.01 91 1006.9
20260506085905 70 359 1.0 2.0 0.00 0.01 0.01 91 1006.8
20260506085406 70 359 0.0 1.0 0.00 0.01 0.01 91 1006.8
20260506084905 70 359 1.0 1.0 0.00 0.01 0.01 91 1006.7
20260506084405 70 359 1.0 2.0 0.00 0.01 0.01 91 1006.6
20260506083905 70 359 1.0 3.0 0.00 0.01 0.01 90 1006.6
20260506083405 70 359 0.0 1.0 0.00 0.01 0.01 90 1006.5
20260506082905 70 359 1.0 2.0 0.00 0.01 0.01 90 1006.5
20260506082406 70 359 1.0 3.0 0.00 0.01 0.01 90 1006.4
20260506081905 70 359 1.0 2.0 0.00 0.01 0.01 90 1006.3
20260506081406 71 359 0.0 1.0 0.00 0.01 0.01 89 1006.3
20260506080905 71 359 0.0 2.0 0.00 0.01 0.01 89 1006.2
20260506080405 71 359 0.0 2.0 0.00 0.01 0.01 89 1006.2
20260506073405 71 359 0.0 1.0 0.00 0.01 0.01 88 1005.9
20260506072905 71 359 0.0 1.0 0.00 0.01 0.01 87 1005.8
20260506072405 71 359 1.0 3.0 0.00 0.01 0.01 87 1005.8
20260506071905 71 359 0.0 2.0 0.00 0.01 0.01 87 1005.8
20260506071405 71 359 0.0 2.0 0.00 0.01 0.01 86 1005.6
20260506070905 72 359 0.0 1.0 0.00 0.01 0.01 86 1005.5
20260506070405 72 359 1.0 2.0 0.00 0.01 0.01 86 1005.4
20260506062406 74 359 1.0 3.0 0.00 0.01 0.01 82 1005.1
20260506061905 74 359 2.0 3.0 0.00 0.01 0.01 81 1005.0
20260506061405 74 359 1.0 2.0 0.00 0.01 0.01 80 1005.0
20260506060905 74 359 1.0 3.0 0.00 0.01 0.01 80 1005.0
20260506060405 74 359 1.0 2.0 0.00 0.01 0.01 81 1005.0